Airfield :
LOGIN :

Register | Disclaimer

   EN    FR    IT 

 










Legend :    VFR   Marginal VFR   IFR   Intensive IFR   Very Intensive IFR
Visi :
Ceiling :
>= 8 km
>= 3000ft
5 to 8 km
1000 to 3000 ft
1500m to 5 km
500 to 1000 ft
800 to 1500m
200 to 500 ft
< 800m
< 200 ft
Symbols :   Thunderstorms  Fog  Heavy snow  Heavy precipitations  Wind > 20 kt
SIGMETs :     Misc.  Thunderstorms  Icing  Turbulence  Mountain Waves  Volcanic Ashes







- Airport Elevation : 56 ft


LPOV - Ovar Air Base

CURRENT METAR :
  • 250100Z 33004KT 9999 BKN004 BKN012 18/17 Q1015

EXPIRED METARs :
  • 250000Z 34006KT 9999 BKN004 BKN012 18/17 Q1015
  • 242300Z 35007KT 9999 SCT004 BKN015 18/17 Q1015

TAF TAF LPOV
Valid from the 25 at 00:00 until the 26 at 00:00 UTC


242300Z 2500/2524 34005KT 8000 SCT008 BKN014
PROB40 2500/2509 0200 FG BKN002
PROB30
TEMPO 2503/2507 3000 TSRA FEW030CB
BECMG 2512/2514 30008KT 9999 FEW012 BKN018
No reported NOTAMs for that airfield.



MET'MAP, your aeronautical weather chart ! - Copyright ORBIFLY December 2007 - Disclaimer

ORBIFLY MET'MAP TEAM :

Programming & Development : Alexandra Zaïnal
Concept & Development : Baudouin d'Aumeries
Co-Development & Prog : Marc-Olivier Méhu
Technical & hardware support : Manuel Goepfert

Contact : metmap@orbifly.com




SOURCES & CREDITS :

   NOAA